STARLINK-34526, 64481

Orbit data source: Space-Track

STARLINK-34526, 64481 is a payload satellite owned by SpaceX/Seattle (US) in LEO that was launched on Mon, 23 Jun 2025 UTC via an FALCON 9 launch vehicle from the Air Force Eastern Test Range (AFETR). Payload-class satellites include a variety of spacecraft equipped with specific instruments for various scientific and technological missions. These include communications satellites like Starlink; space stations such as the ISS; scientific satellites like the Hubble; Earth observation satellites from companies like Planet Labs, Umbra, and HawkEye 360; GPS; miniature CubeSats for education and research; and military/defense satellites.

Loading next visibility...
Identifier
64481, 2025-133K
Orbit
LEO
Last TLE update
14 hours ago
Origin
Manufacturer
SpaceX/Seattle
Mission
Operational spacecraft
Bus & Motor
STARLINK V2MO, Unknown motor
Mass
575 kg wet, ~530 kg dry
Launch date (UTC)
2025-06-23 (1 week ago)
Launch vehicle
FALCON 9
Launch site
Air Force Eastern Test Range (AFETR)
Object type
Payload
Rocket body
Debris
Shape & HBR
Unknown
Radar Cross Section
RCS unknown

Expand to show TLE details & history

TLE from 14 hours ago
0 STARLINK-34526
1 64481U 25133K   25182.16668981 -.01125730  00000-0 -47216-2 0  9993
2 64481  53.1559 217.9614 0000994  89.6010  95.1776 15.87485131  2380
Epoch: 2025-07-01T04:00Z
TLE epoch observation values (Epoch: 2025-07-01T04:00:01.999Z)
Latitude
-3.93791°
Longitude
61.42694°
Altitude
310.913 km
Speed
7.722 km/s
True Right ascension
02h 43m 36s
True Declination
-3° 54' 46"
Sunlit
Object was in daylight at epoch
Visualization orbit readout
Latitude
-53.19882°
Longitude
150.71726°
Altitude
332.495 km
Speed
7.708 km/s
Apparent Right ascension
14h 01m 43s
Apparent Declination
-69° 20' 10"
Sunlit
Object is in daylight
Visualization observer readout
Local Sidereal Time
05:38:15
Azimuth
153.948° SSE
Elevation
-49.373°
Doppler factor
1
Orbital elements
Apogee altitude
310.264 km
Perigee altitude
308.935 km
Semi-major axis
6,687.737 km
Eccentricity
0.0001
Inclination
53.1559°
RAAN
217.9614°
Arg. of periapsis
89.601°
True anomaly
Unknown
Mean anomaly
95.1776°
Eccentric anomaly
Unknown
Mean motion
3.96848 °/min
Orbital period
90.71 mins
BSTAR
-0.0047216
Loading maneuver chart data...
Loading SW <> Apogee altitude chart data...
Loading historical data...
Loading historical data...
Loading historical data...
Loading historical data...
Loading historical data...
Loading historical data...
Loading historical data...

STARLINK-34526 Visibility forecast

Observer location: undefined°, undefined°

Span
Click to sort rows by Start time (UTC) header in descending order
Start Az.
Max El. time (UTC)
Max El. Az.
Max El.
End time (UTC)
End Az.
4 mins2025-07-02 05:07:34.148Z235.24° WSW2025-07-02 05:09:34.148Z344.308° N44.017°2025-07-02 05:11:34.148Z46.11° ENE
|